Location: Unspecified
(47.7670°N, 8.8522°E)
Time: 06:43:08
(UTC+01:00)

Tiangong - Visible Passes

Search period start: 02 December 2022 00:00
Search period end: 12 December 2022 00:00
Orbit: 385 x 394 km, 41.5° (Epoch: 01 December)

Date Brightness Start Highest point End Pass type
(mag) Time Alt. Az. Time Alt. Az. Time Alt. Az.
02 Dec 0.3 17:45:45 10° SSW 17:47:35 14° SSE 17:49:25 10° SE visible
02 Dec 0.9 19:21:14 10° SW 19:21:50 14° SW 19:21:50 14° SW visible
03 Dec -0.4 18:23:41 10° SW 18:26:17 23° S 18:26:46 22° SSE visible
04 Dec 0.0 17:26:20 10° SW 17:28:43 19° SSE 17:31:06 10° ESE visible
04 Dec 0.2 19:02:26 10° WSW 19:04:06 21° SW 19:04:06 21° SW visible
05 Dec -0.4 18:04:55 10° SW 18:07:38 26° S 18:09:10 18° SE visible
06 Dec -0.1 17:07:32 10° SW 17:10:10 24° S 17:12:48 10° ESE visible
06 Dec -0.2 18:44:02 10° WSW 18:46:39 23° S 18:46:42 23° S visible
07 Dec -0.2 17:46:33 10° WSW 17:49:15 25° S 17:51:58 10° SE visible
07 Dec 1.1 19:23:44 10° WSW 19:24:22 12° SW 19:24:22 12° SW visible
08 Dec 0.2 18:26:01 10° WSW 18:28:22 19° SSW 18:29:50 14° SSE visible
09 Dec 0.1 17:28:33 10° WSW 17:31:07 22° S 17:33:42 10° SE visible
10 Dec 0.8 18:08:36 10° SW 18:10:18 14° SSW 18:12:01 10° S visible
11 Dec 0.7 17:11:00 10° WSW 17:13:14 18° SSW 17:15:28 10° SSE visible
